Vorticity
5 6 6 4 8 8 7 9 8 7 7 7 8 7 7 7 9 8 8 8 9 14 12 9 14 13 10 8 9 9 5 7 11 6 4 5 4 5 3 0 1 2 4 6 5 4 3 4 5 5 3 3 5 5 4 5 4 4 4 3 4 3 4 5 5 5 5 6 7 7 7 7 7 6 6 5 5 6 5 6 6 6 7 6 5 5 6 7 7 7 6 6 6 7 6 7 9
1 8 10 7 7 6 6 6 8 9 8 7 8 11 12 10 9 8 9 10 10 12 12 12 11 10 8 7 9 7 5 5 6 4 4 4 3 5 4 4 4 4 6 5 2 2 3 4 4 4 4 6 6 5 5 5 5 5 4 4 4 5 5 5 6 6 6 7 8 8 7 7 7 6 6 6 7 6 6 6 6 6 6 6 5 6 8 8 8 8 7 7 7 8 7 7 9
0 8 10 8 8 6 5 4 5 8 9 8 8 10 11 9 8 7 7 6 5 7 10 11 7 6 6 8 10 6 6 7 5 4 3 2 1 2 4 6 4 4 6 2 1 3 3 4 3 5 8 6 5 5 5 5 5 4 4 5 5 6 6 6 7 6 7 8 7 7 6 6 6 6 7 7 8 7 7 6 6 6 6 5 4 5 8 9 9 8 9 7 6 8 8 7 8
3 3 3 8 10 7 7 4 4 6 7 8 8 8 7 7 7 6 6 4 1 2 4 6 4 4 4 6 10 6 6 5 3 3 1 1 1 1 1 2 1 2 4 3 3 5 5 5 7 8 7 4 4 4 4 4 4 5 6 6 6 6 6 6 5 6 7 6 6 6 6 5 6 7 7 8 8 8 8 7 6 6 6 5 4 5 7 9 8 8 10 8 6 7 7 6 6
4 -0 -3 4 8 7 7 6 5 5 5 7 9 8 7 6 7 6 4 4 -0 0 3 4 3 2 2 5 7 6 3 3 2 1 -0 -2 1 3 1 1 2 5 8 7 8 8 7 7 7 6 4 4 5 4 4 5 5 6 7 6 6 6 6 5 5 6 6 6 6 6 5 6 7 7 7 7 7 7 7 8 6 6 6 5 5 6 7 7 7 8 10 8 6 6 6 4 4
3 3 1 0 3 6 9 8 4 2 5 6 9 9 7 6 6 7 3 1 -2 1 4 5 6 2 2 4 5 5 2 4 3 -1 1 -0 2 5 3 3 4 8 10 10 9 7 7 7 4 4 4 5 5 6 5 5 7 7 7 6 6 5 5 4 5 6 5 6 6 6 6 7 8 8 7 7 6 6 6 6 4 4 4 4 6 6 6 6 6 7 8 9 7 6 6 5 4
4 6 7 4 3 3 6 10 6 3 5 4 5 7 5 5 5 6 3 2 0 0 0 3 7 2 1 3 6 5 4 7 3 2 5 3 4 5 4 4 4 8 9 8 7 5 6 4 3 5 5 6 7 6 6 7 8 7 6 5 5 5 5 4 5 5 6 6 6 7 8 9 9 9 8 8 8 7 7 7 5 5 4 4 6 6 7 7 8 9 8 8 8 7 6 6 7
5 7 9 9 7 5 6 8 6 3 5 6 4 4 5 5 6 6 5 5 3 0 -1 3 7 4 2 5 8 7 7 7 3 6 8 7 6 4 6 6 5 6 6 5 4 3 4 4 4 6 7 7 8 7 8 7 6 6 4 4 5 5 5 5 5 5 7 7 7 8 9 9 9 9 9 8 9 9 10 12 12 11 8 6 6 7 8 8 10 10 9 8 7 7 6 6 6
5 8 9 9 6 7 7 7 7 3 3 6 5 4 5 5 6 6 6 6 3 2 3 6 10 8 7 8 9 7 8 8 7 9 8 10 8 4 7 7 5 6 5 3 1 2 3 6 6 6 8 9 9 8 7 6 5 5 4 5 5 6 5 5 5 6 8 7 8 9 9 9 8 8 7 7 7 9 11 13 15 15 11 9 9 8 7 7 7 7 7 7 7 7 7 7 6
6 10 11 8 4 2 5 10 10 5 2 3 4 6 8 6 6 5 6 6 2 2 4 6 8 7 9 10 8 7 7 8 9 9 8 11 8 5 7 5 6 5 3 1 0 3 5 9 7 6 9 9 9 7 6 5 4 4 5 6 6 7 6 5 5 6 7 8 8 7 8 7 7 6 6 7 8 10 11 13 14 13 12 10 8 5 5 6 7 7 8 8 7 8 8 8 8
4 6 10 9 5 2 5 10 11 8 4 5 3 4 8 5 5 7 7 5 2 4 5 6 8 6 9 9 6 8 8 8 9 7 8 8 5 5 5 4 4 3 3 3 5 6 7 9 6 7 9 8 8 6 5 5 4 6 6 6 7 7 6 6 6 6 7 8 8 7 7 7 7 7 7 9 10 12 12 12 13 12 10 7 6 6 7 8 8 8 8 8 7 8 9 9 9
3 -0 4 10 10 8 9 9 13 12 4 4 3 2 6 6 7 8 6 7 7 7 6 6 9 9 10 9 6 7 7 6 6 8 8 3 3 5 3 4 4 4 4 6 9 8 8 9 7 7 9 7 6 5 5 5 6 7 7 7 7 7 8 7 6 7 9 9 9 9 10 10 10 9 10 10 10 11 11 10 10 10 8 7 8 9 10 11 11 11 10 9 10 13 13 10 10
3 2 8 17 14 7 8 7 14 18 12 9 6 3 3 6 7 3 4 10 12 9 6 5 7 9 9 8 6 4 4 4 5 7 6 3 4 4 2 4 5 6 6 6 9 10 9 9 8 7 7 6 5 5 6 6 7 8 8 8 7 8 8 8 8 8 10 11 11 12 11 11 11 11 10 10 10 9 10 10 9 10 10 10 11 11 12 12 12 11 10 10 11 15 14 10 9
2 4 10 13 5 -0 5 7 15 19 14 12 8 5 5 8 6 1 3 6 9 6 5 5 5 7 7 7 6 7 6 4 4 5 3 4 5 3 4 5 5 6 6 7 8 11 11 9 9 8 6 5 6 6 7 7 8 9 8 8 8 9 9 9 9 10 12 12 11 11 11 11 11 11 11 11 10 10 10 10 9 10 10 9 10 9 9 9 9 9 9 9 10 11 9 8 8
2 3 6 3 -4 -2 6 6 10 7 5 10 8 7 9 11 9 7 8 4 5 4 2 5 6 7 8 6 6 9 11 6 4 4 3 4 5 4 4 5 6 6 6 8 9 12 12 9 8 6 5 5 7 8 7 8 8 8 8 8 8 8 9 9 9 12 12 11 10 9 10 11 11 11 11 10 9 8 8 8 8 9 8 7 8 8 7 8 8 7 7 8 7 7 6 6 6
2 2 1 -1 -0 1 5 5 5 2 5 8 4 9 14 11 8 10 10 5 4 3 3 6 6 6 7 6 5 8 11 9 5 4 4 4 4 4 4 5 6 6 7 9 10 12 11 9 7 5 6 6 7 7 7 8 8 8 7 7 7 7 7 8 10 12 11 9 8 8 8 9 9 9 9 8 7 6 6 7 7 7 6 6 6 6 7 7 6 5 5 4 4 3 3 3 3
2 6 -1 -3 4 4 2 2 5 4 5 4 2 9 14 10 8 8 7 7 5 2 3 5 5 4 4 5 5 7 8 9 7 3 5 5 4 4 5 6 6 7 7 9 11 12 11 8 7 5 6 7 6 7 8 8 8 7 7 7 6 7 7 7 9 10 10 8 7 7 7 7 7 7 7 6 5 5 5 5 6 5 4 4 5 5 5 4 3 3 2 1 1 2 2 2 2
4 8 3 0 4 7 2 0 4 4 4 4 5 8 10 11 9 8 7 9 7 3 4 5 5 4 5 4 4 8 7 8 8 5 5 5 5 6 6 5 6 9 9 10 10 10 10 7 6 7 7 6 6 6 8 8 8 6 5 6 6 6 7 8 8 9 10 8 7 7 6 7 6 6 6 6 4 4 4 4 5 4 3 3 4 5 4 4 4 3 2 2 2 3 3 2 3
5 3 6 4 1 12 10 3 4 2 6 4 4 5 8 14 11 8 6 9 10 7 7 7 7 5 5 4 3 8 8 5 6 7 6 4 6 7 7 6 7 11 11 10 10 8 8 6 6 7 7 6 5 6 8 8 7 6 5 6 7 7 7 7 8 9 9 8 7 7 7 7 6 6 5 5 4 4 4 4 4 4 3 3 4 4 4 4 4 4 4 5 5 5 5 4 4
6 2 3 2 -0 14 12 8 5 -0 6 4 2 4 6 15 13 7 4 5 8 9 10 8 8 7 5 5 4 7 8 6 4 6 7 4 5 6 6 6 9 14 13 10 8 7 6 6 7 7 7 5 5 6 7 7 6 5 6 6 7 7 7 7 8 8 8 8 7 6 6 5 4 4 4 4 4 4 4 5 5 4 4 4 3 4 4 4 4 5 6 6 6 6 6 7 6
8 5 2 2 -1 9 10 10 7 -0 6 3 0 3 5 13 14 13 11 7 6 8 11 9 10 8 6 9 8 6 7 8 5 5 7 5 6 5 4 6 10 14 14 9 7 7 6 7 7 7 7 5 5 6 6 6 6 7 7 7 8 8 7 6 6 6 6 6 5 4 4 4 4 4 4 5 5 5 5 5 5 5 5 4 4 5 5 5 4 5 5 6 6 6 6 6 7
10 10 4 4 -2 4 7 5 4 1 5 5 2 3 4 7 11 17 22 19 12 8 9 7 8 8 7 10 9 6 6 8 6 6 8 11 12 5 4 6 7 14 14 9 6 6 8 9 9 9 7 5 5 5 5 5 6 7 7 8 8 7 6 5 5 5 4 4 3 3 4 4 4 4 5 6 5 5 5 5 5 5 5 5 5 5 5 4 4 4 4 4 4 5 6 5 5
12 10 3 4 -1 3 7 3 6 5 3 5 6 8 5 1 1 7 13 17 15 10 8 6 6 7 7 9 9 7 9 10 8 7 8 14 17 8 6 6 7 15 14 8 6 5 9 11 10 9 7 5 5 6 6 6 7 8 8 8 7 7 6 5 5 4 4 5 4 3 5 6 5 5 5 5 5 4 5 5 4 5 5 4 5 4 4 4 3 4 4 4 3 4 5 5 5
8 8 2 4 1 1 3 2 7 7 3 2 5 9 7 2 1 5 6 6 7 6 7 9 8 8 9 11 10 8 9 9 7 6 8 14 18 13 7 5 8 16 14 8 5 5 10 11 9 10 8 5 5 6 6 6 7 8 8 7 6 6 5 4 4 4 4 4 4 4 6 6 6 6 5 4 5 4 4 5 4 5 5 4 5 5 5 5 4 5 4 4 4 3 3 5 5
8 7 1 2 3 1 -1 0 5 3 1 -1 4 8 4 5 4 4 5 5 6 4 5 9 12 12 14 15 10 6 5 5 6 6 9 14 15 13 7 5 10 16 14 8 5 7 10 10 9 9 7 5 6 7 7 6 7 7 7 6 5 5 4 3 3 4 4 4 5 6 7 7 6 5 6 5 5 5 4 4 5 5 5 5 5 5 5 5 6 5 5 5 5 5 4 4 4
6 0 0 3 1 0 -0 1 0 -1 2 -3 2 8 2 2 3 3 4 6 8 5 6 8 12 15 16 15 9 6 4 5 7 7 13 16 13 11 7 6 11 15 14 8 6 9 8 8 9 8 6 6 6 7 7 6 6 7 6 6 5 5 4 4 3 4 5 5 5 6 7 7 6 5 6 7 6 6 5 5 5 5 5 5 5 5 4 4 5 5 5 5 5 6 7 6 5
1 -4 3 8 1 2 3 2 -2 2 12 3 -1 6 2 -1 2 6 5 4 4 3 7 9 8 12 16 16 9 7 7 7 7 8 15 15 11 9 7 8 11 13 13 9 9 9 8 10 10 8 7 6 6 7 7 6 6 6 6 6 6 5 5 5 5 5 6 6 6 7 7 6 6 6 5 5 5 6 6 5 5 5 5 5 6 5 4 4 4 4 4 4 4 5 7 7 7
-1 -2 3 4 -1 -2 -2 -1 -2 2 11 8 3 4 1 2 5 7 4 2 -1 -1 7 11 9 9 14 18 13 10 10 9 6 7 17 14 8 10 10 11 12 13 12 11 10 7 6 10 10 8 8 7 7 8 8 6 6 6 6 6 6 5 5 5 6 6 7 7 7 7 7 6 7 7 5 5 5 5 5 5 5 5 4 4 5 6 6 6 4 3 3 4 5 4 5 6 7
-4 -2 3 2 -4 -6 -6 -4 -4 -3 3 9 13 9 4 5 6 6 5 2 -1 -2 2 11 15 9 12 17 15 14 10 9 7 7 15 13 8 12 14 13 11 10 12 12 9 5 5 7 8 9 8 9 9 8 8 6 6 7 7 6 5 4 4 5 6 6 7 7 7 8 7 6 6 6 6 6 6 5 4 3 3 3 3 2 3 4 6 7 7 5 3 5 6 6 5 5 5
-3 -1 8 5 -1 0 -1 -4 -4 -1 3 12 19 11 5 3 3 6 7 5 3 1 -2 6 15 9 10 15 14 16 11 8 9 7 13 12 10 15 16 14 9 9 11 11 7 2 4 6 7 8 8 9 10 9 8 7 7 6 6 5 5 5 5 6 6 6 7 6 7 7 5 4 5 4 4 5 4 3 2 1 2 2 3 3 4 4 6 8 10 8 7 7 7 6 6 5 6
-1 -4 8 8 1 4 4 -3 -1 4 3 10 15 6 5 4 3 10 10 5 3 2 -2 2 12 10 12 16 13 16 14 13 12 8 10 10 12 15 14 13 8 8 10 9 5 2 2 6 9 9 7 8 8 8 8 7 6 5 5 5 5 6 7 7 7 6 6 6 6 6 4 3 3 3 3 3 2 1 1 1 3 4 4 5 6 6 8 9 10 10 10 9 9 9 8 6 7
5 -4 5 8 3 4 3 0 7 13 3 5 13 8 8 7 3 8 9 6 2 2 0 0 8 10 12 17 15 15 15 15 12 8 8 10 14 13 11 13 9 7 9 6 3 1 2 7 10 8 7 7 6 6 6 5 4 4 5 5 6 7 7 8 7 7 6 6 5 4 3 2 3 3 3 2 2 2 2 3 4 6 6 6 7 7 8 9 10 10 10 9 10 11 10 8 7
6 2 10 8 9 7 -0 5 12 6 -1 11 21 12 6 6 6 7 5 5 3 2 2 2 6 8 10 14 14 16 15 13 10 8 8 9 12 12 10 13 9 6 8 7 2 0 3 7 8 7 6 6 6 5 4 4 5 5 6 6 7 7 7 7 7 7 6 6 6 4 4 3 3 3 3 2 3 3 3 5 6 7 7 7 7 7 8 9 9 9 9 8 8 8 9 9 8
13 7 16 10 12 13 1 6 10 -1 5 23 21 11 6 2 6 9 6 8 8 7 7 5 6 6 9 11 9 15 19 15 12 10 10 9 8 9 10 11 9 7 8 6 3 1 3 7 7 6 8 8 6 5 4 6 6 6 7 7 7 7 6 6 7 7 7 7 6 6 5 4 3 2 2 3 3 4 5 6 6 6 6 6 7 7 9 10 9 10 10 9 9 8 8 9 9
21 6 12 7 6 16 11 8 12 10 15 18 8 8 9 -2 -1 5 5 6 8 9 9 8 7 6 8 9 8 13 16 15 14 12 10 10 8 7 9 9 9 8 7 5 3 3 4 7 7 6 7 9 8 7 6 6 6 6 6 7 7 6 6 6 6 6 7 7 6 6 5 3 2 2 3 4 5 5 6 7 5 4 5 5 7 8 9 10 10 11 11 11 11 10 9 9 10
21 13 13 8 0 8 11 9 15 15 9 8 6 7 4 -1 -1 -1 -2 -0 2 4 4 4 4 6 9 10 9 10 12 12 15 16 13 12 11 7 7 8 9 8 6 5 5 5 5 6 7 6 6 7 9 10 9 7 6 6 6 7 7 6 6 6 6 6 6 6 4 3 2 2 3 3 3 5 6 6 6 5 4 4 5 5 8 9 9 9 8 7 7 8 9 9 10 10 10
11 17 19 16 7 1 5 13 15 9 8 9 5 1 0 -0 -1 -2 -2 -0 2 1 2 1 0 5 12 13 9 9 11 9 10 17 18 16 14 10 8 8 9 8 6 6 6 6 7 8 8 7 7 7 8 9 10 11 9 7 6 7 8 7 6 6 6 6 5 4 3 2 2 3 3 2 2 4 6 6 5 4 3 4 4 5 9 9 8 8 5 4 5 6 7 7 8 8 8
0 9 18 15 10 2 6 18 9 3 12 10 4 2 -1 -5 -4 2 2 -0 1 -1 -0 1 -1 4 13 15 11 8 9 6 6 12 16 17 15 12 10 8 8 9 8 8 7 6 9 11 10 9 8 7 9 9 9 11 10 9 7 7 9 9 7 6 6 7 5 3 2 1 2 3 2 1 1 4 6 5 4 4 4 4 5 7 10 9 7 6 5 6 7 6 7 9 9 10 10
1 -0 7 10 11 3 4 14 4 -1 5 1 3 4 -4 -6 2 5 0 -3 -1 -1 -1 1 3 6 10 12 11 9 8 6 8 9 12 15 14 12 10 8 8 8 9 8 7 8 9 9 8 8 8 7 8 8 8 9 9 8 8 8 9 10 9 7 6 6 5 3 2 2 3 2 1 1 1 3 6 5 4 5 4 4 6 9 10 8 6 7 7 7 7 9 13 17 18 18 19
8 0 0 10 17 4 -0 8 4 -0 1 0 4 4 -3 -3 3 3 -3 -3 1 2 2 4 9 8 6 8 9 10 9 7 9 9 10 13 12 12 10 8 7 7 9 8 5 6 6 5 4 3 4 5 5 6 7 9 9 8 7 8 8 9 10 8 5 5 5 3 2 2 3 3 1 -0 0 3 6 5 5 5 5 5 8 11 9 8 7 6 6 6 9 15 18 16 15 15 19
11 6 4 11 16 8 2 5 6 1 0 5 6 3 -1 -3 3 2 -5 1 6 5 3 4 9 7 4 9 12 13 12 8 10 10 9 9 10 12 10 8 9 9 9 9 7 6 3 2 2 1 1 2 3 4 6 7 7 7 7 7 7 7 9 8 6 6 5 3 3 4 4 2 1 0 0 2 5 6 5 6 5 6 10 10 7 7 7 5 5 6 11 14 9 7 7 8 10
8 6 12 13 12 12 6 3 7 4 0 4 4 6 6 1 4 3 -0 6 7 3 4 3 5 4 5 10 11 11 12 9 10 13 11 7 9 11 8 8 11 10 9 10 9 8 6 4 2 1 1 1 2 3 5 5 5 6 6 6 7 7 8 9 7 4 4 4 4 5 4 2 1 1 0 2 5 6 6 6 6 9 10 8 7 7 5 4 3 5 11 8 -1 1 6 5 4
11 13 15 12 10 10 9 4 3 3 2 3 0 2 9 8 3 -1 4 7 3 4 7 3 3 5 5 8 9 9 9 9 8 11 14 11 8 7 5 7 10 11 9 8 8 7 7 7 5 2 2 5 7 5 5 5 4 5 6 6 7 6 6 9 7 4 5 6 7 5 4 3 2 2 1 2 5 6 7 7 8 10 9 6 6 6 4 2 2 5 10 6 -5 -5 4 5 2
24 23 13 13 14 8 9 8 1 0 3 5 3 -2 4 16 8 -2 5 9 6 8 5 3 4 2 2 4 8 11 7 7 7 7 13 15 10 7 6 6 7 9 9 9 9 6 6 8 7 6 5 8 10 10 9 6 4 6 7 8 7 4 5 8 6 5 6 6 7 7 4 3 2 2 2 2 5 7 8 8 9 11 8 5 5 5 3 -0 1 7 9 7 -1 -6 1 5 3
30 23 9 15 18 8 7 8 3 2 -2 -0 5 -4 -4 19 17 0 7 13 9 10 6 4 2 -2 3 6 8 12 8 5 7 7 10 15 14 11 10 7 5 5 6 8 9 7 7 8 9 9 7 7 8 9 10 8 5 4 7 10 8 4 5 7 6 5 5 4 6 7 4 4 3 3 2 2 4 6 9 9 9 11 8 4 5 3 2 -1 0 8 10 8 6 1 3 7 5
24 19 9 12 17 14 5 3 8 3 -9 0 15 1 -12 11 22 9 12 14 7 11 9 0 -2 -1 4 6 7 13 13 7 6 8 8 12 14 13 11 10 7 6 4 6 9 10 8 8 8 8 7 7 7 8 10 10 9 6 5 7 7 6 7 7 6 5 5 4 5 4 3 4 3 3 3 2 3 4 9 10 9 11 8 3 4 3 1 -1 0 9 11 8 8 7 8 7 4
16 14 10 7 13 18 2 0 10 -7 -16 8 24 5 -17 3 25 12 7 14 11 13 8 -4 -3 1 2 1 2 8 14 13 8 8 8 8 9 8 8 9 9 10 9 10 12 12 10 9 9 9 9 10 10 10 9 9 11 11 10 7 5 6 7 8 6 5 7 6 3 3 3 3 2 3 4 2 3 3 7 11 10 11 8 4 4 3 1 -0 2 9 11 8 8 8 5 3 3
10 8 9 4 9 15 3 1 -0 -19 -5 28 29 7 -6 12 33 17 4 17 26 19 6 -0 1 0 -1 -2 -0 2 6 12 12 8 7 8 8 6 5 8 11 13 12 13 15 14 12 10 9 9 8 7 7 7 7 6 7 8 10 8 7 7 8 8 6 4 7 7 5 4 3 2 2 3 3 2 3 4 6 11 13 10 8 5 5 3 1 -0 3 9 10 9 8 3 0 2 4
8 5 5 4 9 8 -2 -0 -9 -22 2 29 26 9 -7 0 15 15 11 18 30 21 -0 0 4 0 1 -3 -2 3 0 4 10 10 9 9 9 6 3 5 8 8 6 7 11 14 13 9 7 6 5 4 4 3 3 3 3 4 6 7 7 8 9 9 6 5 7 7 7 7 3 1 2 3 4 3 4 5 6 11 13 11 7 5 5 3 -0 0 5 9 10 9 4 -1 1 4 3
11 12 9 4 7 3 -2 5 -2 -7 7 17 25 12 -13 -7 6 11 13 6 14 14 -2 1 6 1 6 1 -4 4 3 -1 1 5 10 10 8 5 4 4 4 4 3 3 5 7 9 8 6 5 3 3 4 5 5 4 3 3 3 4 5 6 8 9 7 6 8 7 7 8 4 1 4 4 2 3 5 6 7 10 13 10 6 6 7 3 -0 2 6 8 9 6 -1 -2 4 4 2
9 16 16 7 8 6 3 5 -4 1 11 8 17 8 -14 1 10 6 10 3 4 10 1 3 8 3 6 5 -0 1 3 0 -3 -1 6 10 10 6 4 4 3 4 4 3 2 3 5 7 8 6 3 3 5 6 7 6 5 5 3 4 4 5 6 7 7 7 8 9 7 7 5 3 5 4 2 3 6 6 6 10 13 10 7 7 7 3 1 4 6 8 9 3 -3 1 4 2 4
5 8 9 7 17 17 11 9 -4 -5 3 0 6 4 -7 2 6 6 15 9 2 8 8 7 8 6 5 4 4 2 4 6 3 1 1 5 14 14 7 3 2 3 3 2 2 2 6 8 8 7 4 4 5 6 8 9 9 10 10 8 6 5 6 7 7 7 8 9 7 6 5 4 4 5 4 4 4 6 7 10 13 12 8 7 6 3 3 5 5 8 7 0 -1 4 3 3 6
7 8 3 -0 12 18 13 16 11 1 2 4 5 5 4 7 9 10 16 16 8 4 8 9 6 10 9 5 5 5 6 6 5 5 1 -1 7 14 13 8 3 3 2 2 2 2 7 10 8 8 5 4 6 7 9 8 7 9 12 13 11 7 7 8 8 7 7 8 7 7 5 3 5 7 5 2 2 6 8 10 14 12 7 6 5 4 4 5 6 7 4 0 2 3 3 6 7
5 9 8 1 4 11 8 11 19 11 0 8 14 10 10 18 22 18 13 18 19 8 4 6 3 6 9 10 11 7 1 -0 4 7 4 -1 -0 6 15 15 9 6 3 4 5 2 6 9 8 8 6 5 5 5 4 4 7 9 10 13 13 9 7 8 7 6 6 8 8 8 6 5 6 5 3 1 2 7 8 10 15 12 7 6 6 5 4 5 6 5 2 1 3 5 8 9 6
4 4 6 5 2 5 4 3 12 12 1 4 7 4 12 15 12 16 15 13 17 14 8 8 6 4 4 7 13 11 1 -3 1 1 -0 3 2 1 10 16 14 10 5 6 7 4 5 7 7 7 6 4 2 4 6 8 10 9 9 13 13 11 9 8 7 7 6 7 7 7 7 6 6 5 5 3 3 6 6 10 16 12 6 6 6 5 5 5 5 4 1 2 5 8 9 6 3
4 2 2 4 2 3 6 2 3 8 4 -1 -1 14 39 34 8 6 16 15 15 15 10 8 9 9 6 2 6 12 8 6 10 10 6 5 4 5 9 12 14 12 8 7 7 5 5 6 6 6 5 3 2 5 8 7 8 9 11 14 14 14 12 9 9 7 7 8 7 7 6 6 6 5 5 3 3 6 6 11 17 12 6 6 6 5 6 5 4 2 1 4 8 9 6 3 6
2 2 2 3 2 2 4 2 3 7 5 3 6 10 17 20 15 11 11 16 20 19 16 12 8 9 10 6 4 6 8 13 19 21 17 9 5 11 14 13 14 12 9 9 8 7 6 5 6 5 4 3 3 7 7 5 8 11 12 13 13 14 14 13 12 9 9 9 7 8 7 7 7 7 6 4 4 7 6 10 18 13 6 5 5 6 6 4 2 1 3 8 9 6 3 5 9
6 5 4 3 5 5 2 1 2 3 3 3 4 -8 -24 -13 12 14 8 10 14 16 20 18 15 16 15 11 10 7 3 9 13 12 14 7 2 10 17 18 19 15 11 11 9 8 6 6 7 5 4 4 5 9 9 5 7 10 10 9 9 10 11 13 15 14 13 11 9 8 7 7 8 7 7 5 4 7 6 11 19 13 4 5 6 6 5 3 1 2 7 10 6 3 3 6 7
Height
5887 5887 5887 5888 5888 5888 5889 5889 5889 5889 5889 5889 5890 5890 5890 5890 5889 5889 5889 5889 5888 5888 5888 5889 5889 5889 5889 5889 5888 5888 5888 5888 5888 5887 5888 5889 5890 5891 5891 5891 5892 5892 5892 5892 5892 5893 5894 5894 5894 5894 5896 5896 5897 5896 5896 5897 5897 5898 5899 5899 5899 5900 5900 5900 5901 5901 5902 5903 5903 5904 5905 5905 5906 5906 5906 5906 5906 5906 5906 5907 5907 5907 5906 5906 5906 5906 5905 5905 5908 5909 5908 5908 5908 5908 5907 5906 5906
5888 5888 5888 5888 5888 5889 5889 5889 5889 5889 5890 5890 5890 5890 5891 5891 5890 5890 5890 5889 5889 5889 5889 5889 5889 5889 5890 5889 5889 5889 5889 5889 5889 5888 5888 5889 5890 5892 5892 5892 5892 5893 5893 5893 5893 5894 5895 5895 5895 5896 5897 5897 5897 5897 5897 5898 5898 5899 5899 5900 5900 5900 5900 5901 5901 5902 5903 5903 5904 5904 5905 5905 5906 5906 5906 5906 5906 5907 5907 5907 5907 5907 5907 5907 5907 5907 5906 5908 5910 5909 5908 5908 5908 5908 5907 5907 5907
5888 5888 5888 5889 5889 5890 5890 5890 5890 5889 5890 5890 5890 5890 5891 5891 5890 5890 5890 5890 5890 5891 5891 5891 5891 5890 5890 5890 5890 5890 5891 5891 5890 5890 5890 5890 5891 5892 5892 5892 5893 5894 5894 5894 5894 5895 5895 5895 5896 5896 5897 5897 5897 5898 5898 5899 5899 5900 5900 5900 5900 5901 5901 5901 5902 5903 5903 5904 5904 5904 5905 5905 5905 5906 5906 5906 5906 5907 5907 5907 5908 5908 5908 5908 5908 5908 5908 5909 5910 5909 5909 5909 5909 5908 5908 5907 5907
5889 5889 5889 5889 5889 5890 5890 5891 5891 5890 5890 5890 5890 5891 5891 5891 5891 5890 5891 5891 5891 5891 5892 5892 5892 5892 5892 5892 5892 5892 5892 5892 5891 5891 5891 5891 5891 5892 5892 5893 5894 5894 5895 5895 5895 5895 5896 5896 5896 5897 5898 5898 5898 5899 5899 5900 5900 5900 5901 5901 5901 5901 5902 5902 5903 5903 5904 5904 5904 5904 5905 5905 5905 5905 5906 5906 5907 5907 5907 5908 5908 5909 5909 5909 5909 5909 5909 5911 5911 5910 5910 5909 5909 5909 5909 5908 5908
5889 5890 5890 5890 5890 5891 5891 5891 5892 5891 5891 5891 5891 5891 5891 5892 5891 5891 5891 5891 5891 5892 5892 5892 5893 5893 5893 5893 5893 5893 5893 5893 5892 5892 5892 5892 5892 5892 5893 5893 5894 5895 5895 5895 5896 5896 5896 5897 5897 5898 5899 5899 5899 5899 5900 5900 5901 5901 5902 5902 5902 5902 5902 5903 5903 5904 5904 5904 5904 5904 5904 5905 5905 5906 5906 5906 5907 5907 5908 5908 5909 5909 5910 5910 5910 5910 5910 5911 5912 5911 5911 5910 5910 5909 5909 5909 5909
5890 5890 5891 5891 5892 5892 5892 5892 5892 5892 5892 5892 5892 5892 5892 5892 5892 5892 5891 5891 5891 5892 5892 5892 5893 5893 5893 5894 5894 5894 5894 5894 5893 5893 5893 5893 5892 5893 5893 5893 5894 5895 5896 5896 5896 5896 5897 5898 5898 5899 5900 5900 5900 5900 5901 5901 5902 5902 5902 5902 5902 5903 5903 5904 5904 5904 5904 5904 5904 5904 5905 5906 5906 5906 5906 5907 5907 5908 5908 5909 5909 5910 5910 5911 5911 5911 5911 5911 5912 5912 5911 5911 5910 5910 5910 5910 5910
5891 5891 5892 5892 5893 5893 5893 5893 5893 5893 5892 5892 5892 5892 5892 5892 5892 5892 5892 5892 5892 5893 5893 5893 5893 5893 5894 5895 5895 5895 5895 5895 5895 5894 5894 5893 5893 5893 5893 5894 5894 5895 5896 5897 5897 5897 5898 5899 5899 5900 5900 5900 5900 5901 5901 5902 5902 5903 5903 5903 5903 5903 5904 5904 5904 5904 5905 5905 5905 5905 5906 5906 5907 5907 5907 5907 5908 5908 5908 5909 5910 5910 5911 5911 5911 5912 5912 5912 5912 5912 5911 5911 5911 5911 5910 5910 5911
5891 5891 5892 5893 5893 5894 5894 5893 5893 5893 5893 5892 5892 5892 5892 5892 5892 5893 5893 5892 5893 5893 5894 5894 5894 5894 5894 5895 5895 5895 5895 5896 5895 5895 5894 5894 5894 5893 5894 5894 5895 5896 5897 5897 5898 5898 5899 5900 5900 5900 5901 5900 5901 5901 5902 5903 5903 5903 5903 5903 5904 5904 5905 5905 5905 5905 5905 5906 5906 5906 5907 5907 5908 5908 5908 5908 5908 5909 5909 5909 5910 5911 5911 5912 5912 5912 5912 5912 5912 5912 5912 5912 5911 5911 5911 5911 5911
5892 5892 5892 5893 5894 5894 5894 5894 5894 5893 5893 5893 5893 5893 5893 5893 5893 5893 5893 5893 5893 5893 5894 5894 5894 5894 5895 5895 5895 5895 5896 5896 5896 5896 5895 5895 5894 5894 5894 5895 5896 5897 5897 5898 5899 5899 5900 5900 5901 5901 5901 5901 5901 5902 5903 5903 5904 5904 5904 5904 5904 5905 5905 5905 5905 5906 5907 5907 5907 5907 5908 5908 5908 5909 5909 5909 5909 5909 5909 5910 5910 5911 5912 5912 5913 5913 5913 5913 5913 5912 5912 5912 5912 5911 5911 5911 5911
5892 5892 5893 5894 5894 5895 5895 5894 5894 5894 5894 5893 5894 5894 5893 5893 5893 5893 5893 5893 5893 5894 5894 5894 5894 5894 5895 5895 5895 5895 5896 5896 5896 5896 5896 5896 5895 5895 5895 5896 5897 5898 5898 5899 5899 5900 5900 5901 5902 5902 5902 5902 5902 5903 5903 5904 5904 5905 5905 5905 5905 5905 5906 5906 5906 5907 5908 5908 5908 5909 5909 5909 5909 5910 5910 5910 5910 5910 5910 5911 5911 5912 5912 5913 5913 5913 5913 5913 5913 5913 5912 5912 5912 5911 5911 5911 5911
5892 5893 5893 5894 5894 5895 5895 5895 5895 5895 5894 5894 5894 5894 5894 5893 5893 5893 5893 5893 5893 5894 5894 5894 5895 5895 5895 5896 5895 5896 5896 5896 5896 5897 5897 5897 5896 5896 5896 5897 5898 5899 5899 5900 5900 5900 5901 5902 5902 5902 5902 5902 5903 5904 5904 5905 5905 5905 5905 5906 5906 5906 5906 5907 5907 5908 5909 5910 5910 5910 5910 5910 5910 5910 5911 5911 5911 5911 5911 5912 5912 5913 5913 5914 5914 5914 5914 5914 5913 5913 5912 5912 5912 5912 5912 5911 5911
5893 5893 5894 5894 5894 5895 5896 5896 5896 5896 5895 5895 5894 5894 5894 5894 5894 5894 5894 5894 5894 5894 5894 5894 5895 5895 5896 5896 5896 5896 5896 5896 5896 5897 5897 5898 5897 5897 5898 5898 5899 5899 5900 5900 5901 5901 5901 5902 5902 5902 5902 5903 5904 5904 5905 5905 5906 5906 5906 5906 5906 5907 5907 5908 5909 5909 5910 5911 5911 5911 5911 5911 5911 5912 5912 5912 5912 5912 5913 5913 5913 5914 5914 5914 5914 5915 5914 5914 5914 5913 5913 5913 5912 5912 5912 5912 5912
5893 5894 5895 5894 5894 5895 5896 5896 5896 5896 5896 5895 5895 5894 5894 5894 5895 5895 5894 5894 5894 5894 5894 5894 5895 5895 5896 5896 5896 5896 5896 5896 5896 5897 5898 5899 5898 5898 5899 5899 5900 5900 5900 5901 5901 5901 5902 5902 5902 5903 5903 5904 5905 5905 5906 5906 5906 5907 5907 5907 5907 5908 5908 5909 5910 5911 5911 5912 5912 5912 5912 5912 5912 5913 5913 5913 5913 5914 5914 5914 5914 5914 5915 5915 5915 5916 5916 5915 5915 5914 5914 5914 5914 5913 5913 5913 5913
5894 5894 5895 5894 5894 5895 5896 5896 5896 5896 5896 5895 5895 5894 5894 5894 5894 5894 5893 5893 5893 5893 5894 5894 5894 5895 5896 5896 5897 5897 5896 5896 5897 5897 5899 5899 5899 5899 5900 5900 5900 5901 5901 5901 5901 5902 5902 5902 5903 5903 5904 5905 5905 5906 5906 5907 5907 5907 5907 5908 5908 5909 5909 5910 5911 5912 5912 5913 5913 5913 5913 5913 5914 5914 5914 5914 5914 5915 5915 5915 5915 5916 5916 5916 5917 5917 5917 5917 5916 5916 5916 5916 5915 5915 5915 5915 5914
5894 5895 5895 5895 5894 5895 5895 5896 5896 5895 5895 5895 5894 5894 5894 5894 5893 5892 5891 5891 5892 5892 5893 5894 5894 5895 5895 5895 5896 5897 5897 5897 5897 5898 5899 5899 5900 5900 5900 5900 5901 5901 5901 5902 5902 5902 5903 5903 5904 5904 5905 5905 5906 5907 5907 5907 5908 5908 5908 5909 5909 5910 5911 5912 5912 5913 5913 5914 5914 5914 5914 5915 5915 5915 5915 5915 5916 5916 5916 5917 5917 5917 5917 5918 5918 5918 5918 5918 5918 5917 5917 5917 5917 5917 5916 5916 5916
5893 5894 5895 5894 5894 5895 5895 5895 5896 5895 5894 5894 5894 5894 5894 5894 5893 5891 5891 5891 5891 5892 5893 5894 5894 5895 5895 5895 5896 5897 5898 5898 5898 5898 5899 5899 5900 5900 5900 5901 5901 5901 5902 5902 5902 5902 5903 5904 5904 5905 5906 5906 5907 5907 5908 5908 5909 5909 5910 5910 5911 5911 5912 5913 5913 5914 5915 5915 5916 5915 5916 5916 5916 5917 5917 5917 5917 5917 5917 5918 5918 5918 5919 5919 5920 5920 5919 5919 5919 5919 5919 5918 5918 5918 5917 5917 5916
5893 5894 5894 5894 5894 5894 5894 5895 5895 5894 5894 5894 5893 5893 5893 5893 5892 5891 5890 5891 5891 5892 5892 5893 5894 5895 5895 5896 5896 5897 5897 5898 5898 5898 5899 5900 5900 5900 5901 5901 5901 5902 5902 5902 5902 5903 5903 5904 5905 5906 5906 5907 5908 5908 5908 5909 5910 5910 5911 5911 5912 5913 5913 5914 5915 5915 5916 5917 5917 5917 5917 5918 5918 5918 5918 5918 5918 5918 5919 5919 5919 5919 5920 5920 5920 5921 5921 5921 5920 5920 5920 5920 5919 5919 5918 5917 5917
5892 5893 5893 5893 5893 5894 5894 5894 5895 5894 5893 5893 5892 5892 5893 5893 5892 5891 5891 5891 5892 5892 5893 5894 5894 5895 5895 5896 5896 5896 5897 5898 5898 5899 5899 5900 5900 5901 5901 5901 5902 5902 5902 5903 5903 5903 5904 5905 5906 5906 5907 5908 5908 5909 5909 5910 5911 5911 5912 5912 5913 5913 5914 5915 5916 5917 5917 5918 5918 5918 5919 5919 5919 5919 5920 5920 5920 5920 5920 5920 5920 5920 5920 5921 5921 5921 5922 5921 5921 5921 5921 5920 5920 5919 5919 5918 5918
5892 5893 5893 5892 5893 5893 5893 5894 5895 5894 5893 5892 5892 5892 5892 5893 5892 5891 5891 5891 5892 5893 5893 5894 5894 5895 5895 5896 5896 5896 5897 5897 5898 5899 5899 5900 5900 5901 5901 5902 5902 5902 5902 5903 5903 5904 5904 5905 5906 5907 5908 5909 5909 5910 5910 5911 5912 5912 5913 5914 5914 5915 5915 5916 5917 5918 5919 5919 5919 5919 5920 5920 5920 5921 5921 5921 5921 5921 5921 5921 5921 5921 5921 5921 5921 5922 5922 5922 5922 5921 5921 5921 5920 5920 5920 5919 5918
5891 5892 5892 5892 5892 5893 5893 5894 5894 5893 5893 5892 5892 5891 5892 5892 5892 5891 5891 5891 5892 5893 5894 5894 5895 5895 5895 5895 5896 5896 5896 5897 5897 5898 5898 5899 5900 5900 5901 5902 5902 5902 5903 5903 5904 5904 5905 5906 5907 5908 5909 5909 5910 5910 5911 5912 5913 5913 5914 5915 5915 5916 5917 5918 5918 5919 5919 5920 5920 5921 5921 5921 5922 5922 5922 5922 5922 5922 5922 5922 5922 5922 5922 5922 5922 5922 5922 5922 5922 5922 5921 5921 5921 5920 5920 5920 5919
5890 5891 5891 5892 5892 5892 5892 5893 5893 5893 5892 5892 5891 5890 5891 5891 5891 5891 5891 5892 5893 5894 5894 5894 5895 5895 5895 5895 5895 5895 5896 5896 5897 5897 5898 5898 5899 5900 5900 5901 5902 5902 5903 5903 5904 5905 5906 5906 5907 5908 5909 5910 5911 5911 5912 5913 5913 5914 5915 5916 5917 5917 5918 5919 5919 5920 5920 5921 5921 5922 5922 5922 5923 5923 5923 5923 5923 5923 5923 5923 5923 5923 5923 5923 5923 5922 5922 5922 5922 5922 5922 5921 5921 5921 5920 5920 5920
5889 5890 5890 5891 5891 5891 5891 5892 5892 5892 5892 5892 5891 5890 5890 5890 5891 5891 5892 5893 5893 5894 5894 5894 5895 5896 5896 5896 5895 5895 5895 5895 5896 5897 5897 5897 5898 5899 5900 5901 5901 5902 5903 5903 5904 5905 5906 5907 5908 5909 5909 5910 5911 5912 5913 5913 5914 5915 5916 5917 5918 5918 5919 5920 5920 5921 5921 5922 5922 5923 5923 5923 5924 5924 5924 5924 5924 5924 5924 5924 5924 5924 5924 5924 5924 5924 5923 5923 5923 5923 5922 5922 5921 5921 5921 5921 5921
5888 5889 5889 5890 5890 5890 5890 5891 5891 5891 5892 5893 5892 5891 5890 5889 5890 5891 5892 5893 5893 5894 5894 5894 5894 5895 5896 5896 5895 5895 5894 5895 5895 5896 5896 5897 5898 5899 5899 5900 5901 5902 5903 5904 5905 5906 5906 5907 5908 5909 5910 5911 5911 5912 5913 5914 5915 5916 5917 5918 5919 5919 5920 5920 5921 5921 5921 5922 5923 5923 5924 5924 5924 5925 5925 5925 5925 5925 5925 5925 5925 5924 5924 5925 5925 5925 5925 5925 5924 5924 5923 5922 5922 5921 5921 5921 5921
5887 5888 5888 5888 5888 5889 5889 5890 5890 5891 5891 5892 5892 5892 5891 5890 5890 5891 5892 5893 5893 5893 5894 5894 5894 5895 5896 5895 5895 5895 5894 5894 5895 5895 5896 5896 5897 5899 5899 5900 5901 5902 5903 5904 5905 5906 5907 5908 5908 5909 5910 5911 5912 5913 5914 5915 5916 5917 5918 5919 5920 5920 5920 5921 5921 5921 5922 5923 5923 5924 5924 5925 5925 5925 5925 5926 5926 5926 5927 5926 5926 5926 5926 5925 5925 5925 5925 5925 5925 5924 5924 5923 5922 5922 5921 5921 5920
5887 5887 5887 5887 5887 5888 5888 5889 5890 5890 5891 5891 5892 5892 5891 5890 5890 5890 5891 5892 5893 5893 5893 5894 5894 5895 5895 5895 5895 5895 5895 5895 5894 5894 5895 5896 5897 5898 5899 5900 5901 5902 5903 5904 5905 5906 5907 5908 5909 5909 5910 5911 5912 5913 5915 5916 5917 5918 5919 5920 5920 5920 5921 5921 5921 5922 5923 5923 5924 5924 5925 5925 5925 5926 5926 5926 5927 5927 5927 5927 5927 5927 5927 5927 5926 5925 5925 5925 5925 5924 5924 5923 5923 5922 5922 5921 5920
5885 5885 5885 5886 5887 5888 5888 5889 5890 5890 5891 5891 5891 5892 5892 5891 5890 5890 5891 5892 5892 5893 5894 5894 5895 5895 5895 5895 5895 5895 5895 5895 5894 5894 5895 5895 5896 5898 5899 5900 5900 5902 5903 5904 5905 5906 5907 5908 5909 5909 5910 5911 5913 5914 5915 5917 5918 5919 5919 5920 5920 5921 5921 5921 5922 5923 5923 5924 5924 5925 5925 5925 5926 5926 5927 5927 5927 5928 5928 5928 5928 5928 5928 5928 5927 5926 5926 5926 5925 5924 5924 5923 5923 5923 5922 5921 5921
5883 5883 5884 5886 5886 5888 5888 5889 5890 5891 5891 5891 5891 5891 5892 5891 5891 5890 5890 5891 5892 5893 5894 5895 5895 5895 5896 5895 5895 5895 5895 5895 5895 5895 5895 5895 5896 5897 5898 5899 5900 5902 5903 5905 5906 5907 5907 5908 5909 5910 5911 5912 5913 5914 5916 5917 5918 5919 5919 5920 5921 5921 5921 5922 5922 5923 5924 5924 5925 5925 5925 5926 5926 5927 5927 5928 5928 5928 5928 5928 5928 5928 5928 5928 5928 5927 5927 5927 5926 5925 5924 5924 5924 5923 5923 5922 5921
5881 5882 5884 5885 5885 5887 5888 5889 5890 5890 5891 5892 5891 5891 5891 5891 5891 5891 5891 5891 5892 5893 5894 5895 5895 5895 5895 5895 5895 5894 5894 5894 5894 5894 5895 5895 5896 5897 5898 5899 5900 5902 5903 5905 5906 5907 5908 5909 5909 5910 5911 5912 5913 5914 5916 5917 5918 5919 5920 5920 5921 5921 5922 5922 5923 5923 5924 5924 5925 5925 5926 5926 5927 5927 5928 5928 5929 5929 5928 5928 5928 5928 5928 5928 5928 5928 5927 5927 5926 5926 5925 5925 5924 5923 5923 5922 5922
5878 5879 5882 5883 5884 5886 5887 5888 5889 5890 5891 5892 5892 5891 5891 5891 5891 5891 5891 5891 5892 5892 5893 5894 5894 5895 5895 5895 5895 5894 5894 5894 5894 5894 5894 5895 5896 5897 5898 5899 5900 5901 5903 5905 5906 5907 5908 5909 5910 5911 5912 5913 5914 5915 5916 5917 5918 5919 5920 5920 5921 5922 5922 5923 5923 5923 5924 5924 5925 5926 5926 5926 5927 5928 5928 5929 5929 5929 5929 5929 5929 5929 5929 5928 5928 5928 5927 5927 5926 5926 5925 5925 5924 5924 5923 5922 5921
5876 5877 5880 5882 5883 5886 5886 5886 5888 5889 5889 5891 5892 5891 5891 5891 5891 5891 5892 5891 5891 5892 5893 5893 5893 5894 5894 5895 5895 5894 5894 5894 5894 5894 5894 5895 5896 5897 5898 5899 5900 5902 5904 5905 5906 5908 5909 5910 5910 5911 5912 5913 5914 5915 5916 5917 5918 5919 5920 5921 5921 5922 5923 5923 5923 5924 5924 5925 5925 5926 5926 5927 5927 5928 5929 5929 5929 5929 5929 5929 5929 5929 5929 5928 5928 5927 5927 5926 5926 5925 5925 5925 5924 5924 5923 5922 5921
5874 5875 5878 5880 5882 5884 5885 5885 5887 5888 5888 5890 5891 5891 5891 5891 5891 5891 5891 5891 5891 5892 5893 5893 5892 5893 5894 5895 5895 5894 5894 5894 5894 5894 5894 5895 5896 5897 5898 5900 5901 5902 5904 5905 5906 5908 5909 5910 5910 5911 5912 5913 5914 5915 5916 5917 5918 5919 5920 5921 5922 5923 5923 5924 5924 5924 5925 5925 5926 5926 5927 5927 5928 5928 5929 5929 5929 5929 5929 5929 5929 5929 5929 5929 5928 5927 5927 5926 5926 5925 5924 5924 5924 5923 5923 5922 5921
5873 5873 5876 5879 5880 5883 5883 5884 5886 5886 5887 5889 5890 5890 5890 5890 5890 5891 5891 5891 5891 5891 5892 5892 5892 5892 5893 5894 5895 5895 5894 5894 5894 5894 5895 5895 5896 5898 5899 5900 5901 5902 5904 5905 5907 5908 5909 5910 5911 5912 5912 5913 5914 5915 5916 5917 5918 5920 5921 5922 5923 5923 5924 5924 5924 5924 5925 5925 5926 5926 5927 5927 5928 5929 5929 5929 5929 5929 5929 5929 5929 5929 5929 5929 5928 5927 5927 5926 5926 5925 5924 5924 5923 5923 5922 5922 5922
5871 5872 5874 5877 5879 5881 5881 5883 5885 5885 5885 5888 5889 5888 5889 5889 5889 5890 5890 5890 5890 5891 5892 5892 5892 5892 5893 5894 5895 5895 5894 5894 5894 5894 5895 5895 5896 5898 5899 5900 5901 5902 5904 5905 5907 5908 5909 5910 5911 5912 5913 5913 5914 5915 5916 5917 5918 5920 5921 5922 5923 5923 5924 5924 5924 5925 5925 5926 5926 5927 5927 5927 5928 5929 5929 5929 5929 5929 5929 5929 5929 5929 5928 5928 5928 5927 5927 5927 5926 5925 5925 5924 5923 5923 5922 5922 5921
5869 5871 5873 5876 5877 5879 5880 5881 5883 5883 5884 5886 5886 5886 5887 5887 5887 5888 5888 5889 5890 5890 5891 5891 5891 5892 5893 5894 5895 5895 5895 5894 5895 5895 5895 5895 5896 5897 5899 5900 5901 5903 5904 5905 5907 5908 5909 5910 5911 5912 5913 5913 5914 5915 5916 5917 5918 5919 5921 5922 5922 5923 5924 5924 5924 5925 5925 5926 5926 5927 5927 5928 5928 5929 5929 5929 5929 5929 5929 5929 5929 5928 5928 5928 5928 5927 5927 5927 5926 5925 5925 5924 5923 5923 5922 5921 5921
5868 5870 5872 5874 5876 5877 5879 5880 5881 5882 5882 5884 5884 5885 5885 5885 5885 5886 5887 5888 5889 5890 5890 5890 5891 5892 5893 5894 5895 5895 5895 5895 5895 5895 5896 5896 5896 5897 5899 5900 5902 5903 5904 5906 5907 5908 5909 5910 5911 5912 5913 5913 5914 5915 5916 5917 5918 5919 5920 5921 5922 5922 5923 5923 5924 5925 5925 5926 5926 5927 5927 5928 5928 5929 5929 5929 5929 5929 5929 5929 5928 5928 5928 5928 5927 5927 5927 5927 5926 5925 5924 5924 5923 5922 5922 5921 5920
5867 5868 5870 5872 5873 5875 5877 5878 5879 5879 5879 5881 5883 5883 5883 5883 5883 5884 5885 5886 5887 5888 5889 5889 5890 5891 5893 5893 5895 5895 5895 5895 5895 5896 5896 5897 5897 5897 5898 5899 5901 5903 5904 5906 5907 5908 5909 5910 5911 5912 5913 5914 5914 5915 5916 5917 5918 5919 5920 5921 5921 5922 5922 5923 5924 5925 5925 5926 5927 5927 5928 5928 5928 5929 5929 5929 5929 5928 5928 5928 5928 5928 5928 5928 5927 5927 5927 5926 5926 5925 5924 5923 5923 5922 5922 5921 5920
5865 5866 5867 5869 5871 5873 5876 5876 5876 5876 5877 5880 5881 5880 5881 5881 5882 5882 5883 5884 5885 5887 5888 5889 5889 5891 5892 5893 5894 5894 5895 5895 5895 5896 5896 5897 5897 5898 5898 5899 5900 5902 5904 5906 5907 5909 5910 5911 5911 5912 5913 5914 5915 5915 5916 5917 5918 5919 5920 5920 5921 5921 5922 5923 5923 5924 5925 5926 5927 5927 5928 5928 5928 5928 5928 5928 5928 5928 5928 5928 5928 5928 5928 5928 5927 5927 5927 5926 5925 5924 5924 5923 5922 5922 5921 5920 5919
5864 5864 5865 5867 5869 5872 5874 5874 5874 5874 5875 5878 5878 5878 5879 5880 5880 5880 5881 5881 5883 5884 5886 5887 5888 5890 5891 5892 5893 5894 5894 5895 5895 5895 5896 5896 5897 5898 5899 5899 5900 5902 5904 5906 5907 5908 5909 5911 5911 5912 5913 5914 5915 5916 5917 5918 5919 5919 5920 5920 5921 5921 5922 5923 5923 5924 5925 5926 5927 5927 5928 5928 5928 5928 5928 5928 5928 5928 5928 5928 5928 5928 5928 5928 5927 5927 5926 5926 5925 5924 5923 5922 5921 5921 5920 5919 5918
5861 5863 5864 5865 5868 5871 5871 5872 5873 5873 5873 5875 5875 5875 5876 5876 5877 5878 5879 5879 5880 5882 5884 5886 5887 5888 5890 5891 5892 5893 5894 5894 5894 5895 5895 5896 5897 5898 5899 5900 5900 5901 5903 5904 5906 5907 5909 5911 5912 5912 5913 5914 5915 5916 5917 5917 5918 5919 5920 5920 5921 5922 5923 5923 5924 5925 5926 5926 5927 5927 5928 5928 5928 5928 5928 5928 5928 5928 5928 5928 5927 5927 5928 5928 5927 5927 5926 5925 5924 5924 5923 5922 5921 5920 5919 5917 5917
5858 5860 5862 5865 5868 5868 5869 5871 5871 5870 5870 5871 5872 5872 5873 5874 5875 5876 5877 5878 5878 5878 5880 5882 5885 5887 5889 5890 5890 5892 5892 5893 5893 5894 5895 5896 5897 5898 5899 5900 5900 5901 5902 5904 5905 5907 5909 5911 5912 5913 5914 5915 5915 5916 5917 5917 5918 5919 5919 5920 5921 5922 5923 5924 5924 5925 5925 5926 5927 5927 5927 5928 5928 5928 5928 5928 5928 5928 5928 5928 5927 5927 5928 5927 5927 5926 5926 5925 5924 5923 5922 5921 5920 5919 5918 5917 5916
5856 5857 5860 5865 5866 5866 5868 5868 5867 5867 5867 5868 5869 5869 5869 5871 5873 5876 5876 5876 5876 5876 5877 5879 5882 5885 5887 5889 5889 5890 5891 5892 5892 5893 5894 5895 5897 5898 5899 5899 5900 5901 5902 5904 5905 5907 5909 5910 5911 5912 5913 5914 5915 5916 5917 5917 5918 5918 5919 5920 5921 5921 5922 5923 5924 5924 5925 5925 5926 5926 5927 5927 5928 5928 5928 5928 5928 5928 5928 5927 5927 5927 5928 5927 5927 5926 5925 5925 5924 5923 5922 5921 5920 5920 5919 5918 5917
5854 5855 5859 5863 5864 5864 5865 5865 5864 5864 5864 5866 5867 5865 5866 5869 5871 5874 5874 5874 5875 5876 5876 5877 5880 5883 5885 5888 5888 5889 5890 5891 5891 5892 5893 5894 5896 5897 5899 5900 5901 5902 5903 5903 5905 5906 5908 5909 5910 5911 5913 5914 5915 5916 5917 5917 5918 5918 5919 5919 5920 5921 5921 5922 5923 5923 5924 5925 5925 5926 5926 5927 5927 5927 5928 5928 5928 5928 5928 5927 5927 5927 5927 5927 5926 5926 5925 5924 5923 5922 5922 5922 5921 5920 5919 5918 5918
5851 5855 5858 5859 5860 5861 5863 5863 5862 5861 5862 5864 5864 5862 5863 5865 5868 5870 5872 5873 5873 5874 5874 5875 5878 5881 5883 5886 5888 5888 5889 5890 5891 5891 5892 5893 5895 5896 5898 5900 5901 5902 5902 5903 5904 5905 5906 5908 5909 5911 5912 5913 5914 5915 5916 5917 5917 5918 5918 5919 5919 5920 5921 5921 5922 5923 5923 5924 5925 5925 5925 5926 5927 5927 5927 5928 5928 5928 5928 5927 5927 5927 5927 5926 5926 5925 5924 5924 5923 5922 5922 5922 5921 5921 5920 5919 5918
5851 5854 5854 5855 5857 5859 5860 5860 5859 5858 5860 5860 5860 5860 5860 5861 5865 5868 5869 5871 5871 5872 5873 5874 5875 5878 5882 5884 5887 5887 5888 5889 5890 5891 5891 5892 5893 5895 5896 5898 5900 5901 5901 5902 5903 5904 5905 5907 5908 5910 5911 5912 5913 5914 5915 5916 5916 5917 5917 5918 5918 5919 5920 5921 5921 5922 5923 5924 5924 5924 5925 5925 5926 5927 5927 5927 5927 5927 5927 5927 5927 5927 5926 5926 5925 5925 5924 5923 5923 5923 5922 5922 5921 5921 5921 5920 5919
5849 5850 5850 5852 5854 5855 5856 5856 5856 5857 5856 5855 5857 5858 5856 5858 5863 5865 5866 5868 5870 5871 5872 5873 5874 5877 5880 5883 5885 5886 5887 5888 5889 5890 5891 5891 5892 5893 5895 5896 5897 5899 5900 5902 5903 5904 5905 5906 5907 5909 5910 5911 5913 5914 5915 5915 5916 5916 5916 5917 5918 5918 5919 5920 5921 5922 5922 5923 5923 5924 5924 5925 5926 5926 5926 5927 5927 5927 5927 5927 5926 5926 5926 5925 5925 5924 5923 5923 5923 5923 5922 5922 5921 5921 5921 5920 5920
5846 5846 5846 5849 5850 5852 5853 5852 5853 5854 5849 5849 5856 5857 5853 5855 5859 5861 5863 5866 5870 5872 5872 5871 5873 5875 5877 5880 5883 5885 5886 5887 5888 5889 5890 5891 5891 5892 5893 5895 5896 5897 5899 5901 5902 5903 5904 5905 5907 5909 5910 5911 5912 5913 5914 5915 5915 5916 5916 5916 5917 5917 5918 5919 5920 5921 5921 5922 5923 5923 5924 5924 5925 5925 5925 5926 5926 5926 5926 5926 5926 5926 5925 5925 5924 5924 5923 5923 5923 5922 5922 5921 5921 5921 5920 5920 5919
5841 5842 5843 5844 5845 5848 5848 5847 5850 5849 5842 5844 5853 5855 5852 5852 5854 5858 5861 5865 5870 5871 5871 5870 5870 5872 5875 5878 5880 5883 5885 5886 5887 5888 5889 5890 5890 5891 5892 5894 5895 5897 5898 5899 5901 5902 5903 5905 5906 5908 5909 5910 5911 5912 5913 5914 5915 5916 5916 5916 5916 5916 5917 5918 5919 5920 5920 5921 5921 5922 5922 5923 5924 5924 5924 5925 5925 5925 5925 5925 5925 5925 5924 5924 5924 5923 5922 5922 5922 5922 5922 5921 5921 5920 5920 5919 5919
5837 5838 5839 5839 5840 5843 5843 5843 5845 5841 5837 5843 5850 5852 5851 5849 5852 5856 5860 5864 5867 5869 5869 5869 5869 5870 5872 5875 5878 5880 5883 5885 5886 5886 5887 5888 5889 5891 5892 5893 5894 5896 5897 5899 5900 5901 5902 5904 5905 5907 5908 5910 5911 5911 5912 5913 5914 5915 5915 5915 5915 5916 5917 5917 5918 5918 5919 5920 5921 5921 5922 5922 5923 5923 5923 5923 5923 5923 5924 5924 5924 5924 5924 5923 5923 5922 5922 5922 5922 5922 5922 5921 5921 5920 5920 5919 5918
5835 5835 5835 5835 5836 5837 5837 5838 5839 5837 5837 5841 5848 5850 5848 5847 5852 5856 5859 5862 5865 5867 5869 5869 5869 5870 5870 5872 5875 5877 5880 5882 5884 5885 5886 5887 5889 5890 5891 5892 5893 5895 5897 5898 5899 5900 5902 5903 5904 5906 5907 5908 5909 5910 5911 5912 5913 5913 5914 5914 5915 5915 5916 5916 5917 5917 5918 5918 5919 5920 5921 5921 5922 5922 5922 5922 5922 5922 5922 5922 5922 5922 5922 5922 5922 5922 5922 5921 5921 5921 5921 5921 5921 5920 5919 5918 5918
5833 5834 5833 5832 5833 5833 5833 5834 5836 5836 5837 5839 5845 5847 5844 5845 5851 5855 5857 5860 5863 5865 5867 5868 5869 5870 5871 5872 5873 5875 5877 5879 5881 5883 5884 5886 5887 5889 5890 5891 5892 5894 5896 5897 5898 5899 5901 5902 5903 5905 5906 5906 5908 5909 5910 5911 5911 5912 5912 5913 5913 5914 5915 5915 5915 5916 5916 5917 5918 5918 5919 5920 5920 5920 5920 5920 5920 5920 5921 5921 5921 5921 5921 5921 5921 5921 5921 5921 5921 5921 5921 5921 5920 5920 5919 5918 5916
5830 5832 5831 5831 5831 5830 5831 5833 5834 5836 5836 5836 5840 5842 5841 5844 5850 5853 5856 5858 5860 5863 5865 5866 5867 5869 5870 5871 5872 5873 5875 5876 5877 5879 5881 5884 5885 5887 5888 5890 5891 5893 5894 5895 5896 5898 5900 5901 5902 5903 5904 5905 5906 5907 5908 5909 5909 5910 5910 5911 5911 5912 5913 5914 5914 5914 5915 5916 5916 5917 5917 5918 5918 5918 5919 5919 5919 5919 5919 5919 5919 5919 5920 5920 5920 5920 5920 5920 5920 5920 5920 5920 5920 5919 5918 5917 5916
5825 5826 5826 5828 5831 5830 5830 5832 5833 5835 5834 5832 5835 5837 5840 5843 5846 5849 5853 5855 5858 5860 5862 5864 5865 5867 5869 5869 5870 5872 5873 5875 5876 5877 5879 5881 5883 5885 5886 5888 5889 5891 5892 5893 5895 5896 5898 5900 5901 5901 5902 5903 5904 5905 5906 5907 5907 5908 5908 5909 5909 5910 5911 5912 5912 5913 5913 5914 5914 5915 5915 5916 5916 5916 5917 5917 5917 5917 5917 5917 5917 5918 5918 5919 5919 5919 5919 5919 5919 5919 5919 5919 5919 5918 5917 5916 5915
5819 5820 5824 5829 5830 5828 5828 5829 5831 5832 5830 5829 5832 5834 5838 5841 5841 5845 5849 5852 5856 5857 5859 5862 5863 5865 5866 5867 5868 5870 5873 5875 5876 5877 5878 5879 5881 5882 5883 5885 5887 5888 5890 5892 5893 5895 5897 5897 5898 5899 5900 5901 5903 5904 5904 5905 5905 5906 5906 5906 5907 5908 5908 5909 5910 5911 5911 5912 5912 5913 5913 5913 5914 5914 5915 5915 5916 5916 5916 5915 5915 5916 5916 5917 5917 5917 5917 5918 5918 5918 5918 5918 5918 5918 5917 5916 5915
5813 5817 5825 5826 5823 5822 5823 5824 5827 5827 5824 5826 5830 5832 5835 5837 5839 5843 5847 5850 5853 5855 5857 5859 5861 5862 5864 5865 5867 5868 5871 5873 5874 5876 5877 5877 5878 5879 5881 5882 5884 5886 5888 5890 5892 5893 5894 5895 5895 5896 5897 5899 5901 5901 5902 5903 5903 5903 5904 5904 5904 5905 5906 5906 5907 5908 5909 5910 5911 5911 5911 5912 5912 5912 5913 5913 5914 5914 5914 5914 5914 5914 5915 5915 5915 5915 5916 5916 5917 5917 5917 5917 5917 5917 5916 5915 5914
5810 5816 5820 5817 5815 5818 5820 5820 5822 5823 5822 5824 5829 5831 5832 5835 5838 5841 5845 5848 5850 5852 5854 5856 5858 5860 5861 5863 5865 5867 5868 5870 5871 5872 5874 5875 5876 5877 5878 5879 5881 5883 5885 5887 5889 5890 5891 5892 5893 5894 5895 5897 5898 5898 5899 5900 5901 5901 5901 5901 5902 5902 5903 5904 5904 5905 5906 5908 5908 5909 5909 5909 5910 5910 5911 5911 5912 5913 5912 5912 5912 5912 5913 5913 5913 5914 5914 5915 5915 5916 5916 5916 5916 5915 5914 5913 5913
5809 5812 5812 5811 5812 5816 5816 5816 5819 5822 5823 5824 5828 5830 5830 5833 5837 5839 5842 5845 5847 5849 5851 5852 5854 5857 5859 5861 5863 5865 5866 5867 5869 5870 5871 5873 5874 5875 5875 5876 5878 5880 5882 5884 5885 5886 5888 5889 5890 5891 5893 5894 5895 5897 5898 5898 5898 5898 5898 5899 5899 5900 5900 5901 5902 5903 5904 5905 5906 5906 5907 5907 5907 5908 5909 5909 5910 5910 5910 5910 5910 5911 5911 5911 5912 5912 5912 5913 5914 5914 5914 5914 5914 5913 5912 5912 5912
5805 5806 5808 5809 5810 5812 5812 5813 5815 5819 5821 5822 5825 5828 5829 5832 5835 5837 5839 5841 5843 5845 5847 5849 5851 5853 5855 5857 5859 5862 5864 5865 5866 5868 5869 5871 5872 5872 5873 5874 5875 5876 5878 5880 5881 5883 5885 5886 5887 5889 5890 5891 5893 5895 5896 5896 5896 5896 5896 5896 5897 5897 5898 5898 5899 5900 5901 5902 5903 5903 5904 5904 5905 5906 5906 5907 5907 5908 5908 5908 5909 5909 5909 5910 5910 5910 5911 5911 5912 5913 5912 5912 5912 5911 5911 5910 5910
5801 5803 5805 5808 5809 5809 5808 5809 5813 5816 5818 5820 5822 5824 5827 5832 5834 5835 5836 5838 5839 5841 5843 5845 5847 5849 5851 5853 5856 5858 5861 5862 5864 5865 5866 5868 5869 5870 5870 5871 5871 5872 5874 5876 5878 5880 5882 5883 5885 5886 5887 5889 5891 5893 5893 5893 5893 5893 5894 5894 5894 5895 5895 5896 5896 5897 5898 5899 5899 5900 5901 5901 5902 5903 5904 5904 5905 5905 5905 5906 5907 5907 5908 5908 5908 5909 5909 5909 5910 5910 5910 5910 5910 5909 5908 5908 5907